Powrót do katalogu

BREEZE-M DEB

AktywnyHEO
NORAD 38606·DEBRIS·🇷🇺 Russia

Wystrzelony Mar 14, 2008 z Baikonur Cosmodrome

Loading…

Następne Przeloty (najbliższe 24 godziny)

TLE

ŚwieżeSource: Space-Track

Epoka: Sep 14, 2026, 02:33 UTC

1 38606U 08011BD  26257.10644699  .00000788  00000-0  35434-2 0  9998
2 38606  48.0511 182.4340 6540628  81.1682 342.6768  3.07672645176452

Śledź BREEZE-M DEB w czasie rzeczywistym z AllMySat

Download on the App Store